Lid_Strength_Index
1 1 2 2 2 2 3 3 2 3 3 3 3 3 3 3 3 3 3 3 3 3 3 3 3 2 5 10 8 5 -3 -1 2 5 6 6 6 7 9 8 8 8 6 6 5 6 6
0 1 1 2 2 2 2 3 3 3 3 3 3 3 3 3 3 3 3 3 3 3 3 3 2 2 6 12 7 5 6 6 4 6 6 5 5 6 7 8 8 6 6 6 6 6 6
0 0 1 1 2 2 2 3 3 3 3 3 3 3 3 3 3 3 3 4 3 3 3 2 2 2 7 11 5 5 8 9 5 6 7 5 4 6 6 8 6 6 8 7 7 7 8
0 0 0 1 1 2 3 3 3 3 3 3 3 3 3 4 4 4 4 4 4 3 2 2 2 5 12 7 5 3 7 8 8 6 5 4 4 6 7 6 7 8 8 12 8 7 7
-1 -0 -0 0 1 2 2 2 3 3 3 3 3 3 3 3 4 4 4 4 3 2 2 2 7 8 9 4 6 6 6 9 8 8 6 3 6 8 7 10 11 10 12 11 10 7 7
-1 -1 -0 0 1 1 1 2 2 3 3 3 4 4 4 4 4 4 5 5 4 3 3 2 3 11 9 9 7 6 7 8 9 8 7 7 9 10 11 11 13 12 12 11 11 8 8
-0 -0 -1 0 1 1 1 1 2 3 3 3 4 4 4 4 4 5 6 9 9 10 9 10 12 10 8 7 7 7 6 7 8 8 11 9 10 12 11 10 10 10 11 10 9 7 9
0 -0 0 0 1 1 1 1 1 2 3 3 4 4 4 4 5 5 8 10 11 9 11 8 8 8 8 7 8 7 8 9 9 11 9 10 12 9 8 8 9 11 11 10 8 7 8
1 0 1 1 1 1 1 1 2 2 3 3 4 4 4 5 5 7 8 8 7 7 12 10 9 9 8 7 8 8 8 9 9 11 10 11 9 8 8 9 10 12 12 10 10 9 8
2 1 1 1 1 1 1 2 2 2 3 3 3 4 4 5 8 8 8 7 6 7 15 12 11 9 7 7 10 6 8 8 9 10 10 10 8 9 10 11 10 13 9 9 9 11 14
2 2 2 1 1 2 2 2 2 3 3 3 3 4 5 5 9 9 7 7 6 9 19 10 11 7 9 9 11 9 7 7 9 9 10 10 11 11 12 10 9 10 8 9 8 12 13
2 2 2 1 2 2 3 3 3 3 3 3 3 4 4 7 9 7 6 7 9 13 17 10 10 11 11 11 11 10 9 8 7 10 10 10 9 11 11 10 9 9 10 11 12 14 16
2 2 2 2 3 3 3 3 4 3 3 3 4 4 5 5 7 7 6 9 14 16 10 11 12 12 13 14 11 11 12 12 12 14 14 10 11 10 10 12 11 11 14 16 16 16 16
3 3 3 3 3 3 4 4 3 4 4 4 5 5 6 5 6 6 7 11 16 12 11 10 10 11 12 12 13 13 13 13 13 11 14 13 13 12 11 11 13 13 13 15 18 17 15
3 3 3 3 3 3 3 3 4 4 4 4 5 8 8 6 5 6 10 15 15 12 9 10 10 13 14 12 13 14 14 14 12 11 13 14 13 10 10 11 10 13 14 13 16 16 15
3 4 4 3 4 3 3 3 3 4 4 5 8 9 8 5 5 7 11 13 12 9 9 10 13 12 14 12 14 15 14 12 11 9 10 12 13 10 11 11 11 11 10 13 15 17 20
4 4 4 4 4 3 2 2 3 4 5 5 8 9 6 5 6 9 13 13 10 7 8 11 12 13 13 12 13 14 13 11 10 10 9 11 12 11 12 14 14 14 13 14 14 14 18
4 3 4 4 4 3 2 2 2 4 5 7 10 11 5 5 10 12 12 10 8 8 8 9 11 11 12 12 11 14 13 11 8 9 10 10 13 13 13 12 12 12 12 13 15 16 16
3 3 4 4 3 3 2 2 3 4 4 9 12 11 6 7 12 12 11 10 9 9 9 10 11 11 11 12 12 11 11 9 8 9 10 11 14 15 14 15 13 12 12 14 12 13 16
3 3 4 3 3 3 3 3 4 4 4 9 11 10 7 9 11 11 12 10 10 7 7 9 10 11 13 12 11 11 10 8 8 9 4 7 14 14 15 15 12 12 11 12 12 14 15
3 3 3 4 3 4 3 4 4 4 5 8 10 11 9 11 10 9 10 9 10 10 8 9 10 11 12 13 12 12 10 9 8 5 9 10 13 13 13 13 10 11 10 11 12 13 13
3 3 3 4 4 4 4 4 4 4 5 8 10 10 9 10 9 10 11 11 10 9 9 10 11 9 11 12 11 11 11 12 10 10 11 12 12 12 13 10 10 11 10 11 10 11 12
3 3 3 3 3 4 4 4 4 4 6 10 9 8 8 11 9 11 11 10 9 8 8 7 8 9 9 10 8 9 9 9 9 11 12 13 11 13 14 11 11 13 11 10 10 10 10
4 3 3 4 3 3 4 3 4 4 6 9 10 9 10 11 9 9 8 8 9 8 9 8 7 9 8 5 6 8 9 9 10 11 12 12 13 14 14 13 17 12 9 8 9 9 9
4 4 4 3 4 3 3 4 4 5 5 9 9 10 10 11 8 9 8 8 8 8 9 8 7 6 6 7 9 11 10 10 10 11 12 11 12 13 15 16 13 10 9 10 10 11 8
4 4 4 4 3 3 3 3 3 4 5 9 10 9 10 11 10 7 8 8 10 11 9 8 5 5 7 9 10 14 14 12 12 11 13 12 12 11 14 16 17 11 8 7 7 15 8
4 4 4 4 4 3 3 3 3 3 4 7 9 9 9 10 8 7 9 9 7 9 10 9 8 8 7 11 12 13 13 10 13 14 13 14 13 13 15 15 13 9 8 7 13 12 7
4 4 4 4 4 4 3 3 3 3 3 6 9 8 9 10 10 7 5 7 7 8 11 8 9 9 9 13 13 13 13 12 13 12 14 15 14 13 14 16 16 7 8 10 8 8 7
5 4 4 4 4 4 4 3 3 3 3 5 11 8 7 11 11 8 6 5 4 5 7 8 9 9 8 11 11 12 13 12 14 15 11 14 11 12 12 12 9 8 8 8 6 7 6